Regional Weather Roundup
Issued by NWS

Home | Current Version | Previous Version | Graphics & Text | Print | Product List | Glossary On
Versions: 1 2 3 4 5 6 7 8 9 10 11 12 13 14 15 16 17 18 19 20 21 22 23 24 25 26 27 28 29 30 31 32 33 34 35 36 37 38 39 40 41 42 43 44 45 46 47 48 49 50
000
ASUS45 KTFX 250719
RWRMT
MONTANA HOURLY WEATHER ROUNDUP
NATIONAL WEATHER SERVICE GREAT FALLS MT
119 AM MDT FRI JUL 25 2014

NOTE: "FAIR" INDICATES FEW OR NO CLOUDS BELOW 12000 FEET WITH NO
SIGNIFICANT WEATHER AND/OR OBSTRUCTIONS TO VISIBILITY.

* THESE STATIONS ARE NOT UNDER NWS QUALITY CONTROL. THEY DO NOT
   REPORT WEATHER SUCH AS PRECIPITATION OR FOG.

MTZ001>007-043-250800-
WEST OF THE DIVIDE
CITY           SKY/WX    TMP DP  RH WIND       PRES   REMARKS
KALISPELL      CLOUDY    57  43  60 SW8       30.07S
MISSOULA       CLEAR     52  37  57 CALM      30.14S
BUTTE          CLEAR     52  32  47 SW6       30.15R
MULLAN PASS    CLOUDY    46  37  71 VRB5G17   30.18F
* LINCOLN      N/A       51  34  52 SW4G14     N/A
* LOOKOUT PASS N/A       50  43  77 S1         N/A
* POLSON       N/A       53  39  59 SW2G9      N/A
* RONAN APT    PTCLDY    48  43  83 N/A        N/A
* SEELEY LAKE  N/A       42  37  83 NE3        N/A
* THOMP F APT  PTCLDY    51  22  32 NE3G8      N/A
$$

MTZ008-052>055-250800-
SOUTHWEST MONTANA
CITY           SKY/WX    TMP DP  RH WIND       PRES   REMARKS
BOZEMAN        CLEAR     54  36  51 SW5       30.09R
DILLON         CLEAR     54  34  47 E9        30.11R
W YELLOWSTONE  CLEAR     52  23  32 SW8       30.19S
* THREE FORKS  CLEAR     57  43  60 N/A        N/A
* BOULDER HILL N/A       49  29  46 SW2        N/A
* MONIDA PASS  N/A       49  17  28 SE6        N/A
* RAYNOLDS PAS N/A       46  26  46 SE12       N/A
* WHITEHALL    N/A       58  33  39 N3         N/A
* WISE RIVER   N/A       48  32  54 SE3        N/A
$$

MTZ009>010-012-014-046-048-049-054-250800-
EAST SLOPES AND CENTRAL MONTANA
CITY           SKY/WX    TMP DP  RH WIND       PRES   REMARKS
CUT BANK       CLEAR     54  37  53 SW22      29.94R
GREAT FALLS    CLEAR     54  34  47 SW6       30.01R
HELENA         CLEAR     59  36  42 W22G28    30.05F
MALMSTROM AFB  CLEAR     57  34  42 SW21      30.00R
* CONRAD       CLEAR     52  39  61 SW10       N/A
* DEARBORN     N/A       63  35  35 S14G26     N/A
* EAST GLACIER N/A       53  36  53 N8G16      N/A
* MONARCH      N/A       55  25  31 W13G24     N/A
* PENDROY      N/A       48  36  63 NE3        N/A
* ROGERS PASS  N/A       49  33  54 SE9G23     N/A
* SAINT MARY   N/A       53  39  59 SW13G33    N/A
* SWEET GRASS  N/A       54  35  49 W19G29     N/A
* WHITE SULPH  N/A       56  32  40 NW9G20     N/A
$$

MTZ011-013-016-021-035-040-045-047-050-051-250800-
NORTH CENTRAL MONTANA
CITY           SKY/WX    TMP DP  RH WIND       PRES   REMARKS
HAVRE          CLEAR     54  37  53 SW14      29.85F
LEWISTOWN      CLEAR     54  36  51 SW12      29.98S
* FORT BENTON  CLEAR     61  34  36 SW12G20   29.94R
* CHESTER      N/A       56  38  51 SW5G10     N/A
* DENTON       N/A       56  32  40 SW12       N/A
* GEYSER       N/A       60  33  36 W27G35     N/A
* JUDITH GAP   N/A       54  31  42 N/A        N/A
* LOMA         N/A       58  36  44 SW13       N/A
$$

MTZ017>020-022>027-061-062-250800-
NORTHEAST MONTANA
CITY           SKY/WX    TMP DP  RH WIND       PRES   REMARKS
GLASGOW        CLEAR     57  39  51 W6        29.89R
GLENDIVE       CLEAR     57  46  67 NW6       29.91R
JORDAN         CLEAR     52  41  66 W3        29.94R
SIDNEY         CLEAR     57  50  78 NW9       29.86S
WOLF POINT     CLEAR     50  46  86 W5        29.88R
* BEAVER HILL  N/A       59  49  70 NW6G11     N/A
* CIRCLE       N/A       55  51  86 N/A        N/A
* LINDSAY DVD  N/A       50  46  86 NW4        N/A
* NAVAJO       N/A       54  49  83 W10        N/A
$$

MTZ028>042-056>058-250800-
SOUTHCENTRAL AND SOUTHEAST MONTANA
CITY           SKY/WX    TMP DP  RH WIND       PRES   REMARKS
BAKER          CLEAR     59  48  67 NW8       29.93R
BILLINGS       CLEAR     64  37  37 N6        30.01R
LIVINGSTON     CLEAR     63  28  27 NW8G22    30.06R
MILES CITY     CLEAR     59  52  78 SE3       29.94R
* LAUREL APT   CLEAR     66  34  31 N8         N/A
* ROUNDUP APT  PTCLDY    61  27  27 N/A        N/A
* ALZADA       N/A       59  53  81 W3         N/A
* HYSHAM       N/A       63  29  28 NE2        N/A
* LAME DEER    N/A       60  46  60 E7         N/A
* REED POINT   N/A       64  28  26 SE1        N/A
* ROSCOE HILL  N/A       61  33  35 SE7        N/A
$$

REGIONAL REPORTS...DAKOTAS
CITY           SKY/WX    TMP DP  RH WIND       PRES   REMARKS
WILLISTON      PTCLDY    59  54  84 N6        29.83S
DICKINSON      CLEAR     63  61  93 NW16      29.81R
CROSBY         N/A       57  57 100 W8        29.82S
TIOGA          MOCLDY    61  61 100 NW15      29.84S
WATFORD CITY   CLEAR     59  57  93 NW7G16    29.82R
BISMARCK       PTCLDY    68  64  87 NW5       29.70R
GRAND FORKS    CLOUDY    70  61  73 SE7       29.77F
FARGO          MOCLDY    70  63  79 E6        29.74F
BUFFALO SD     CLEAR     63  48  58 NW20      29.81R
RAPID CITY     CLEAR     72  59  64 N18       29.82R
$$

REGIONAL REPORTS...WYOMING/IDAHO/WASHINGTON
CITY           SKY/WX    TMP DP  RH WIND       PRES   REMARKS
GILLETTE       CLEAR     63  50  63 N9        30.01R
SHERIDAN       CLEAR     63  48  58 W8        30.01S
YELLOWSTONE LA CLEAR     39  25  57 CALM      30.28F
SALMON         CLEAR     57  36  46 SE3       30.09S
MULLAN PASS    CLOUDY    46  37  71 VRB5G17   30.18S
SAND POINT     CLOUDY    54  54 100 CALM      30.06F
SPOKANE        FAIR      59  41  51 SW13      30.08S
$$

REGIONAL REPORTS...ALBERTA
CITY           SKY/WX    TMP DP  RH WIND       PRES   REMARKS
CALGARY        MOCLDY    57  34  42 W20G30    29.75R
LETHBRIDGE     CLEAR     55  41  59 SW18      29.83S
MEDICINE HAT   CLEAR     52  43  72 SW15G21   29.76S
EDMONTON       CLOUDY    55  45  69 W15G21    29.60F
WATERTON GATE  N/A       55  37  51 SW21G36    N/A
CARDSTON       N/A       55  41  59 W13G23     N/A
MILK RIVER     N/A       55  37  51 W22G31     N/A
$$

REGIONAL REPORTS...SASKATCHEWAN
CITY           SKY/WX    TMP DP  RH WIND       PRES   REMARKS
SWIFT CURRENT  CLEAR     52  43  72 SW15G22   29.75S
REGINA         N/A       52  52 100 SW8       29.79R
VAL MARIE      N/A       50  46  86 SW7        N/A
ASSINIBOIA     N/A       52  48  86 SW7        N/A
CORONACH       N/A       52  48  86 W5         N/A

$$



USA.gov is the U.S. government's official web portal to all federal, state and local government web resources and services.